User: anonymous   Login
Location: Budapest
(47.4979°N, 19.0402°E)
Time: 18:06:06
(UTC+01:00)
Language:

Hubble Space Telescope - Orbit

View from above orbital plane
View from above orbital plane
View from above satellite
View from above satellite

Ground track
Ground track

The orbit data is extracted from the following two-line orbital elements,

1 20580U 90037B   17347.92781654 +.00000462 +00000-0 +17399-4 0  9993
2 20580 028.4694 259.6884 0002510 308.5847 126.4127 15.08943279317377
Epoch (UTC): 13 December 2017 22:16:03
Eccentricity: 0.0002510
inclination: 28.4694°
perigee height: 537 km
apogee height: 541 km
right ascension of ascending node: 259.6884°
argument of perigee: 308.5847°
revolutions per day: 15.08943279
mean anomaly at epoch: 126.4127°
orbit number at epoch: 31737

The dashed part of the orbit path shows where the satellite is in the earth's shadow,  

DLR